Location: Amberg
(48.0613°N, 10.6820°E)
Time: 20:31:35
(UTC+00:00)

Cosmos 1346 Rocket - Pass Details

Date: 18 November 2025
Orbit: 479 x 490 km, 81.2° (Epoch: 10 December)

Event Time Altitude Azimuth Distance (km) Brightness Sun altitude
Rises 17:34:46 0° 352° (N) 2,589 6.3 -19.6°
Reaches altitude 10° 17:36:56 10° 358° (N) 1,701 5.3 -20.0°
Enters shadow 17:38:09 19° 4° (N) 1,232 4.5 -20.2°
